Location: Unspecified
(48.5670°N, 0.0000°E)
Time: 05:47:05
(UTC+00:00)

Vanguard 2 Rocket - Pass Details

Date: 26 August 2019
Orbit: 554 x 3327 km, 32.9° (Epoch: 17 September)

Event Time Altitude Azimuth Distance (km) Brightness Sun altitude
Rises 02:11:49 0° 225° (SW) 4,590 - -24.3°
Reaches altitude 10° 02:14:45 10° 216° (SW) 3,946 - -24.0°
Exits shadow 02:19:58 28° 189° (S) 3,267 9.2 -23.5°
Maximum altitude 02:24:29 35° 156° (SSE) 3,327 9.5 -23.1°
Drops below altitude 10° 02:39:10 10° 100° (E) 5,964 11.4 -21.5°
Sets 02:44:54 0° 93° (E) 7,203 12.1 -20.8°
